Weather History for Covington, KY

Change the Weather History Date:

Monday, January 20, 2014

  Actual Average Record
Temperature  
Mean Temperature 39 °F 31 °F  
Max Temperature 44 °F 39 °F 71 °F (1906)
Min Temperature 33 °F 23 °F -21 °F (1985)
Degree Days  
Heating Degree Days 26 34  
Month to date heating degree days 735 680  
Since 1 July heating degree days 2686 2599  
Cooling Degree Days 0 0  
Month to date cooling degree days 0 0  
Year to date cooling degree days 0 0  
Moisture  
Dew Point 26 °F    
Average Humidity 65    
Maximum Humidity 75    
Minimum Humidity 54    
Precipitation  
Precipitation T in 0.09 in 1.67 in (1898)
Month to date precipitation 2.37 1.95  
Year to date precipitation 2.37 1.95  
Snow  
Snow T in 0.20 in 5.60 in (2011)
Month to date snowfall 9.6 3.9  
Since 1 July snowfall 22.4 9.5  
Snow Depth 1.00 in    
Sea Level Pressure  
Sea Level Pressure 29.84 in    
Wind  
Wind Speed 10 mph (West)    
Max Wind Speed 24 mph    
Max Gust Speed 31 mph    
Visibility 10 miles    
Events Snow    
T = Trace of Precipitation, MM = Missing Value Source: NWS Daily Summary

Daily Weather History Graph

Daily Weather History Graph

Search for Another Location

Airport:

Trip Planner

Search our weather history database for the weather conditions in past years. The results will help you decide how hot, cold, wet, or windy it might be!

Date:

Astronomy

Jan. 20, 2014 Rise Set
Actual Time 7:53 AM EST 5:46 PM EST
Civil Twilight 7:24 AM EST 6:14 PM EST
Nautical Twilight 6:52 AM EST 6:47 PM EST
Astronomical Twilight 6:20 AM EST 7:19 PM EST
Moon 10:17 PM EST (1/20) 9:55 AM EST (1/20)
Length of Visible Light 10h 50m
Length of Day
9h 52m
Waning Gibbous, 83% of the Moon is Illuminated
Jan 20
Waning Gibbous
Jan 24
Last Quarter
Jan 30
New
Feb 6
First Quarter
Feb 14
Full

Hourly Weather History & Observations

Time (EST) Temp. Windchill Dew Point Humidity Pressure Visibility Wind Dir Wind Speed Gust Speed Precip Events Conditions
12:52 AM 36.0 °F 27.5 °F 23.0 °F 59% 29.75 in 10.0 mi SSW 12.7 mph - N/A   Overcast
1:52 AM 37.0 °F 27.4 °F 23.0 °F 57% 29.72 in 10.0 mi SSW 17.3 mph 27.6 mph N/A   Mostly Cloudy
2:52 AM 37.0 °F 28.1 °F 23.0 °F 57% 29.73 in 10.0 mi SW 15.0 mph 25.3 mph N/A   Mostly Cloudy
3:52 AM 37.9 °F 28.9 °F 23.0 °F 55% 29.73 in 10.0 mi SSW 16.1 mph 23.0 mph N/A   Mostly Cloudy
4:52 AM 37.9 °F 31.5 °F 24.1 °F 57% 29.74 in 10.0 mi WSW 9.2 mph 24.2 mph N/A   Scattered Clouds
5:52 AM 37.0 °F 29.8 °F 24.1 °F 59% 29.75 in 10.0 mi SW 10.4 mph 20.7 mph N/A   Scattered Clouds
6:52 AM 36.0 °F 29.6 °F 24.1 °F 62% 29.78 in 10.0 mi SW 8.1 mph - N/A   Mostly Cloudy
7:52 AM 35.1 °F 28.6 °F 24.1 °F 64% 29.81 in 10.0 mi WSW 8.1 mph - N/A   Mostly Cloudy
8:41 AM 35.6 °F 28.0 °F 26.6 °F 70% 29.82 in 10.0 mi West 10.4 mph - N/A   Mostly Cloudy
8:52 AM 37.0 °F 29.3 °F 26.1 °F 65% 29.84 in 10.0 mi West 11.5 mph - N/A   Mostly Cloudy
9:20 AM 35.6 °F 27.1 °F 26.6 °F 70% 29.84 in 10.0 mi West 12.7 mph - N/A   Mostly Cloudy
9:52 AM 37.0 °F 29.8 °F 27.0 °F 67% 29.86 in 10.0 mi West 10.4 mph - N/A   Mostly Cloudy
10:52 AM 39.0 °F 32.3 °F 28.0 °F 65% 29.88 in 10.0 mi WNW 10.4 mph - N/A   Scattered Clouds
11:52 AM 39.9 °F 33.4 °F 28.0 °F 63% 29.89 in 10.0 mi West 10.4 mph - N/A   Mostly Cloudy
12:52 PM 41.0 °F 34.7 °F 28.0 °F 60% 29.87 in 10.0 mi West 10.4 mph - N/A   Mostly Cloudy
1:52 PM 42.1 °F 37.1 °F 28.0 °F 58% 29.86 in 10.0 mi WSW 8.1 mph - N/A   Mostly Cloudy
2:52 PM 43.0 °F 37.2 °F 28.9 °F 58% 29.86 in 10.0 mi West 10.4 mph - N/A   Scattered Clouds
3:52 PM 43.0 °F 37.7 °F 28.0 °F 56% 29.87 in 10.0 mi WNW 9.2 mph - N/A   Mostly Cloudy
4:52 PM 39.0 °F 32.3 °F 28.0 °F 65% 29.89 in 10.0 mi North 10.4 mph - N/A   Mostly Cloudy
5:52 PM 37.0 °F 30.4 °F 27.0 °F 67% 29.91 in 10.0 mi North 9.2 mph - N/A   Scattered Clouds
6:52 PM 34.0 °F 28.0 °F 27.0 °F 75% 29.91 in 10.0 mi NNE 6.9 mph - N/A   Scattered Clouds
7:52 PM 35.1 °F 31.0 °F 27.0 °F 72% 29.91 in 9.0 mi NE 4.6 mph - N/A   Overcast
8:52 PM 35.1 °F 28.6 °F 26.1 °F 70% 29.91 in 9.0 mi ENE 8.1 mph - N/A   Overcast
9:52 PM 35.1 °F 30.1 °F 27.0 °F 72% 29.90 in 9.0 mi ENE 5.8 mph - N/A   Overcast
10:52 PM 35.1 °F 31.0 °F 27.0 °F 72% 29.89 in 9.0 mi NNE 4.6 mph - N/A   Overcast
11:52 PM 33.1 °F 25.5 °F 30.0 °F 89% 29.88 in 1.5 mi NNE 9.2 mph - 0.00 in Snow Light Snow